STARLINK-4468 (53969 NORAD) Tracking and Keplerian Element Data

This shows tracking and keplerian element data for the satellite.

Feedback or suggestion? Click here.




ElementValue
Catalog53969
NameSTARLINK-4468
Epoch Orbit754
Epoch Day325.16668981
Epoch Year2022
RAAN231.4317
Inclination53.2144
Eccentricity0.0001777
Argument of Perigee43.6071
Mean Anonmoly189.6197
Mean Motion15.08834537
Decay Rate0.00013563
L11 53969U 22125F 22325.16668981 .00013563 00000+0 86872-3 0 9994
L22 53969 53.2144 231.4317 0001777 43.6071 189.6197 15.08834537 7548



Live tracking and technical data element details for STARLINK-4468 (NORAD 53969). STARLINK-4468 can be tracked NOW for your location showing map with azimuth and elevation plus other details from your city location.







IsCatalogInMostPopularTable: catalog: 53969, numindb: 5
Update: records affected: 1



GetName: 53969 STARLINK-4468

Hit Count: updated at: Mon, 28 Nov 2022 22:56:39 GMT